Stations météo

réclame
Mon MeteoGroup
Marina Di Ginosa, Italie (16325): Température de l'air & dewpoint: 12.06.2018 13:00:00 - 18.06.2018 13:00:00 (CEST)Marina Di Ginosa, Italie (16325): Vitesse du vent: 12.06.2018 13:00:00 - 18.06.2018 13:00:00 (CEST)Marina Di Ginosa, Italie (16325): Direction du vent: 12.06.2018 13:00:00 - 18.06.2018 13:00:00 (CEST)Marina Di Ginosa, Italie (16325): reduced air pressure: 12.06.2018 13:00:00 - 18.06.2018 13:00:00 (CEST)Marina Di Ginosa, Italie (16325): visibility: 12.06.2018 13:00:00 - 18.06.2018 13:00:00 (CEST)
Date & Time tt [°C] td [°C] ff [km/h] ff [knt] dd ppp [hPa] vv [km]
18.06.2018 13:00:00 - - - - - - -
18.06.2018 12:00:00 - - - - - - -
18.06.2018 11:00:00 29,6 15,7 13 7 NW 1011,0 20
18.06.2018 10:00:00 28,0 16,0 15 8 WNW - 10
18.06.2018 09:00:00 27,0 17,0 15 8 NW - 10
18.06.2018 08:00:00 23,0 17,5 13 7 WNW 1011,1 20
18.06.2018 07:00:00 20,0 17,0 8 4 WNW - 10
18.06.2018 06:00:00 19,0 17,0 11 6 W - 10
18.06.2018 05:00:00 18,8 17,1 8 4 W 1011,0 20
18.06.2018 04:00:00 19,0 17,0 9 5 W - 10
18.06.2018 03:00:00 20,0 18,0 11 6 WNW - 10
18.06.2018 02:00:00 20,2 18,0 11 6 NW 1011,4 20
18.06.2018 01:00:00 21,0 19,0 9 5 WNW - 10
18.06.2018 00:00:00 22,0 19,0 9 5 NNW - 10
17.06.2018 23:00:00 23,0 19,2 8 4 NNE 1011,6 20
17.06.2018 22:00:00 23,0 19,0 8 4 WNW - 10
17.06.2018 21:00:00 24,0 19,0 4 2 S - 10
17.06.2018 20:00:00 26,0 16,6 8 4 NNE 1010,4 30
17.06.2018 19:00:00 26,0 19,0 5 3 WNW - 10
17.06.2018 18:00:00 27,0 19,0 8 4 WNW - 10
17.06.2018 17:00:00 27,4 18,7 18 10 WNW 1010,2 20
17.06.2018 16:00:00 27,0 21,0 8 4 WSW - 10
17.06.2018 15:00:00 22,0 18,0 13 7 SSW - 10
17.06.2018 14:00:00 24,0 21,7 9 5 WSW 1010,4 20
17.06.2018 13:00:00 30,0 15,0 15 8 WNW - 10
17.06.2018 12:00:00 29,0 16,0 9 5 WNW - 10
17.06.2018 11:00:00 28,8 16,4 13 7 NW 1010,6 20
17.06.2018 10:00:00 28,0 17,0 18 10 NW - 10
17.06.2018 09:00:00 26,0 16,0 18 10 NW - 10
17.06.2018 08:00:00 23,8 15,6 18 10 NW 1010,4 18
17.06.2018 07:00:00 22,0 16,0 13 7 WNW - 10
17.06.2018 06:00:00 19,0 16,0 13 7 WNW - 10
17.06.2018 05:00:00 18,8 15,7 15 8 NW 1010,4 18
17.06.2018 04:00:00 19,0 16,0 11 6 WNW - 10
17.06.2018 03:00:00 19,0 17,0 11 6 WNW - 10
17.06.2018 02:00:00 18,8 16,8 11 6 WNW 1010,3 18
17.06.2018 01:00:00 19,0 17,0 8 4 WNW - 10
17.06.2018 00:00:00 20,0 18,0 9 5 W - 10
16.06.2018 23:00:00 20,8 18,4 9 5 WNW 1009,6 18
16.06.2018 22:00:00 21,0 18,0 8 4 W - 10
16.06.2018 21:00:00 23,0 21,0 8 4 W - 10
16.06.2018 20:00:00 23,0 19,4 9 5 W 1008,4 20
16.06.2018 19:00:00 22,0 19,0 9 5 W - 10
16.06.2018 18:00:00 22,0 20,0 8 4 W - 10
16.06.2018 17:00:00 22,0 19,7 13 7 NW 1008,3 20
16.06.2018 16:00:00 26,0 18,0 9 5 NNE - 10
16.06.2018 15:00:00 25,0 18,0 9 5 ENE - 10
16.06.2018 14:00:00 26,0 17,9 15 8 NW 1008,2 20
16.06.2018 13:00:00 27,0 16,0 15 8 NW - 10
16.06.2018 12:00:00 28,0 17,0 18 10 NW - 10
16.06.2018 11:00:00 27,4 17,0 18 10 NNW 1008,2 20
16.06.2018 10:00:00 27,0 18,0 16 9 NW - 10
16.06.2018 09:00:00 25,0 18,0 26 14 NW - 10
16.06.2018 08:00:00 22,2 17,6 22 12 NW 1007,9 20
16.06.2018 07:00:00 20,0 17,0 16 9 WNW - 10
16.06.2018 06:00:00 20,0 16,0 18 10 WNW - 10
16.06.2018 05:00:00 20,4 16,6 21 11 NW 1006,6 10
16.06.2018 04:00:00 21,0 17,0 18 10 NW - 10
16.06.2018 03:00:00 21,0 17,0 22 12 NW - 10
16.06.2018 02:00:00 21,0 16,8 21 11 WNW 1007,3 18
16.06.2018 01:00:00 21,0 16,0 16 9 NW - 10
16.06.2018 00:00:00 20,0 16,0 15 8 NW - 10
15.06.2018 23:00:00 20,2 16,7 11 6 NW 1007,6 10
15.06.2018 22:00:00 21,0 17,0 11 6 NW - 10
15.06.2018 21:00:00 22,0 18,0 9 5 WNW - 10
15.06.2018 20:00:00 22,6 18,2 15 8 WNW 1006,6 18
15.06.2018 19:00:00 24,0 18,0 15 8 NNW - 10
15.06.2018 18:00:00 25,0 18,0 18 10 SW - 10
15.06.2018 17:00:00 26,2 17,0 24 13 NNW 1006,0 18
15.06.2018 16:00:00 26,0 18,0 24 13 NW - 10
15.06.2018 15:00:00 26,0 18,0 21 11 NW - 10
15.06.2018 14:00:00 23,8 18,7 18 10 NW 1006,6 15
15.06.2018 13:00:00 20,0 19,0 9 5 NW - 10
15.06.2018 12:00:00 20,0 18,0 15 8 NW - 10
15.06.2018 11:00:00 23,0 15,3 26 14 NNW 1005,7 10
15.06.2018 10:00:00 24,0 16,0 22 12 NW - 10
15.06.2018 09:00:00 25,0 17,0 16 9 NW - 10
15.06.2018 08:00:00 22,2 16,5 21 11 NW 1005,4 20
15.06.2018 07:00:00 20,0 17,0 16 9 NW - 10
15.06.2018 06:00:00 18,0 17,0 11 6 WNW - 10
15.06.2018 05:00:00 17,8 17,0 9 5 NW 1005,4 20
15.06.2018 04:00:00 18,0 17,0 5 3 W - 10
15.06.2018 03:00:00 18,0 17,0 4 2 WSW - 10
15.06.2018 02:00:00 20,2 16,3 15 8 E 1005,9 20
15.06.2018 01:00:00 19,0 16,0 11 6 NW - 10
15.06.2018 00:00:00 19,0 16,0 13 7 WNW - 10
14.06.2018 23:00:00 19,4 17,0 11 6 NW 1005,6 20
14.06.2018 22:00:00 20,0 17,0 11 6 WNW - 10
14.06.2018 21:00:00 21,0 16,0 9 5 WNW - 10
14.06.2018 20:00:00 22,6 17,1 8 4 W 1004,7 20
14.06.2018 19:00:00 23,0 17,0 13 7 WNW - 10
14.06.2018 18:00:00 24,0 18,0 15 8 W - 10
14.06.2018 17:00:00 24,6 17,1 8 4 NW 1004,2 20
14.06.2018 16:00:00 24,0 17,0 11 6 N - 10
14.06.2018 15:00:00 23,0 17,0 21 11 N - 10
14.06.2018 14:00:00 24,2 18,6 5 3 E 1004,3 20
14.06.2018 13:00:00 21,0 19,0 9 5 W - 10
14.06.2018 12:00:00 23,0 21,0 11 6 SSE - 10
14.06.2018 11:00:00 22,2 20,3 9 5 NE 1004,7 10
14.06.2018 10:00:00 25,0 20,0 8 4 W - 10
14.06.2018 09:00:00 23,0 20,0 8 4 WNW - 10
14.06.2018 08:00:00 23,0 17,2 9 5 W 1004,4 20
14.06.2018 07:00:00 20,0 16,0 11 6 W - 10
14.06.2018 06:00:00 - - - - - - -
14.06.2018 05:00:00 20,2 15,0 11 6 W 1004,4 20
14.06.2018 04:00:00 - - - - - - -
14.06.2018 03:00:00 - - - - - - -
14.06.2018 02:00:00 22,0 16,3 11 6 WNW 1005,1 20
14.06.2018 01:00:00 - - - - - - -
14.06.2018 00:00:00 23,0 17,0 15 8 WNW - 10
13.06.2018 23:00:00 24,0 14,7 15 8 W 1004,4 20
13.06.2018 22:00:00 25,0 15,0 13 7 W - 10
13.06.2018 21:00:00 26,0 16,0 8 4 SW - 10
13.06.2018 20:00:00 26,8 16,4 5 3 WNW 1003,4 20
13.06.2018 19:00:00 29,0 15,0 16 9 W - 10
13.06.2018 18:00:00 29,0 21,0 21 11 S - 10
13.06.2018 17:00:00 27,8 20,6 24 13 S 1003,9 20
13.06.2018 16:00:00 30,0 20,0 24 13 S - 10
13.06.2018 15:00:00 29,0 20,0 22 12 S - 10
13.06.2018 14:00:00 27,4 18,1 21 11 SSE 1005,7 20
13.06.2018 13:00:00 32,0 19,0 16 9 S - 10
13.06.2018 12:00:00 31,0 15,0 9 5 W - 10
13.06.2018 11:00:00 31,0 14,2 5 3 W 1007,0 20
13.06.2018 10:00:00 30,0 14,0 13 7 NW - 10
13.06.2018 09:00:00 29,0 14,0 9 5 W - 10
13.06.2018 08:00:00 25,2 16,1 5 3 WNW 1007,0 20
13.06.2018 07:00:00 23,0 17,0 5 3 W - 10
13.06.2018 06:00:00 20,0 17,0 5 3 NW - 10
13.06.2018 05:00:00 22,0 17,2 9 5 NW 1006,8 20
13.06.2018 04:00:00 23,0 19,0 13 7 WNW - 10
13.06.2018 03:00:00 22,0 20,0 9 5 WNW - 10
13.06.2018 02:00:00 22,2 20,7 11 6 WNW 1006,8 15
13.06.2018 01:00:00 23,0 21,0 8 4 WNW - 10
13.06.2018 00:00:00 23,0 22,0 4 2 NNW - 10
12.06.2018 23:00:00 24,8 21,9 4 2 ENE 1007,2 20
12.06.2018 22:00:00 26,0 23,0 8 4 E - 10
12.06.2018 21:00:00 26,0 23,0 8 4 E - 10
12.06.2018 20:00:00 26,2 22,3 9 5 E 1007,1 20
12.06.2018 19:00:00 27,0 23,0 8 4 ENE - 10
12.06.2018 18:00:00 28,0 23,0 8 4 ESE - 10
12.06.2018 17:00:00 29,2 23,2 9 5 SE 1008,1 20
12.06.2018 16:00:00 30,0 22,0 13 7 SSE - 10
12.06.2018 15:00:00 30,0 23,0 11 6 SE - 10
12.06.2018 14:00:00 30,6 23,3 13 7 SE 1009,1 20
12.06.2018 13:00:00 30,0 24,0 11 6 SE - 10

tt = Température de l'air
td = dewpoint
ff = Vitesse du vent
dd = Direction du vent
ppp = reduced air pressure
vv = visibility

stations d'obs. à proximité